Weather History for Imperial, CA

Change the Weather History Date:

Thursday, September 6, 2012

  Actual Average Record
Temperature  
Mean Temperature 34 °C -  
Max Temperature 41 °C 38 °C 45 °C (1955)
Min Temperature 28 °C 23 °C 17 °C (2004)
Cooling Degree Days 28    
Growing Degree Days 43 (Base 50)    
Moisture  
Dew Point 16 °C    
Average Humidity 38    
Maximum Humidity 79    
Minimum Humidity 18    
Precipitation  
Precipitation 0.00 mm - - ()
Sea Level Pressure  
Sea Level Pressure 1009 hPa    
Wind  
Wind Speed 8 km/h (SSW)    
Max Wind Speed 16 km/h    
Max Gust Speed -    
Visibility 16 kilometers    
Events      
Averages and records for this station are not official NWS values.
T = Trace of Precipitation, MM = Missing Value Source: NWS Daily Summary

Daily Weather History Graph

Daily Weather History Graph

Search for Another Location

Airport:

Trip Planner

Search our weather history database for the weather conditions in past years. The results will help you decide how hot, cold, wet, or windy it might be!

Date:

Astronomy

Sep. 06, 2012 Rise Set
Actual Time 6:20 AM PDT 6:59 PM PDT
Civil Twilight 5:55 AM PDT 7:24 PM PDT
Nautical Twilight 5:26 AM PDT 7:54 PM PDT
Astronomical Twilight 4:56 AM PDT 8:23 PM PDT
Moon 10:36 PM PDT (9/6) 12:01 PM PDT (9/6)
Length of Visible Light 13h 29m
Length of Day
12h 39m
Waning Gibbous, 66% of the Moon is Illuminated
Sep 6
Waning Gibbous
Sep 8
Last Quarter
Sep 15
New
Sep 22
First Quarter
Sep 29
Full

Hourly Weather History & Observations

Time (PDT) Temp. Heat Index Dew Point Humidity Pressure Visibility Wind Dir Wind Speed Gust Speed Precip Events Conditions
12:53 AM 31.1 °C - 8.3 °C 24% 1008.4 hPa 16.1 km WSW 16.7 km/h / 4.6 m/s - N/A   Clear
1:53 AM 28.3 °C - 10.6 °C 33% 1008.1 hPa 16.1 km West 5.6 km/h / 1.5 m/s - N/A   Clear
2:53 AM 28.9 °C - 10.0 °C 31% 1008.3 hPa 16.1 km Calm Calm - N/A   Clear
3:53 AM 29.4 °C - 10.0 °C 30% 1008.3 hPa 16.1 km East 5.6 km/h / 1.5 m/s - N/A   Clear
4:53 AM 28.3 °C 29.1 °C 17.8 °C 53% 1008.5 hPa 16.1 km Calm Calm - N/A   Clear
5:53 AM 28.3 °C 31.9 °C 23.3 °C 74% 1009.0 hPa 16.1 km Calm Calm - N/A   Clear
6:53 AM 28.3 °C 31.9 °C 23.3 °C 74% 1009.8 hPa 16.1 km Calm Calm - N/A   Clear
7:53 AM 30.0 °C 37.4 °C 26.1 °C 79% 1010.3 hPa 16.1 km Calm Calm - N/A   Clear
8:53 AM 31.7 °C 37.9 °C 24.4 °C 65% 1010.7 hPa 16.1 km Calm Calm - N/A   Clear
9:53 AM 33.3 °C 35.5 °C 20.0 °C 45% 1010.9 hPa 16.1 km SW 9.3 km/h / 2.6 m/s - N/A   Clear
10:53 AM 35.0 °C 36.1 °C 17.8 °C 36% 1010.7 hPa 16.1 km Calm Calm - N/A   Clear
11:53 AM 37.2 °C 38.7 °C 17.8 °C 32% 1010.5 hPa 16.1 km North 9.3 km/h / 2.6 m/s - N/A   Clear
12:53 PM 37.8 °C 37.3 °C 13.9 °C 24% 1009.8 hPa 16.1 km SE 11.1 km/h / 3.1 m/s - N/A   Clear
1:53 PM 38.3 °C 37.1 °C 11.7 °C 20% 1008.8 hPa 16.1 km WSW 9.3 km/h / 2.6 m/s - N/A   Clear
2:53 PM 39.4 °C 38.3 °C 11.7 °C 19% 1007.8 hPa 16.1 km WSW 11.1 km/h / 3.1 m/s - N/A   Clear
3:53 PM 40.0 °C 38.8 °C 11.7 °C 18% 1007.0 hPa 16.1 km Calm Calm - N/A   Clear
4:53 PM 39.4 °C 38.3 °C 11.7 °C 19% 1006.6 hPa 16.1 km WSW 5.6 km/h / 1.5 m/s - N/A   Partly Cloudy
5:53 PM 39.4 °C 38.3 °C 11.7 °C 19% 1006.6 hPa 16.1 km Calm Calm - N/A   Clear
6:53 PM 38.9 °C - 11.1 °C 19% 1006.8 hPa 16.1 km SSE 16.7 km/h / 4.6 m/s - N/A   Clear
7:53 PM 37.2 °C 39.7 °C 19.4 °C 35% 1007.7 hPa 16.1 km SSE 16.7 km/h / 4.6 m/s - N/A   Clear
8:53 PM 36.1 °C 36.8 °C 17.2 °C 32% 1008.8 hPa 16.1 km SW 11.1 km/h / 3.1 m/s - N/A   Clear
9:53 PM 34.4 °C 34.4 °C 16.1 °C 33% 1009.3 hPa 16.1 km SW 7.4 km/h / 2.1 m/s - N/A   Clear
10:53 PM 33.9 °C 37.2 °C 21.1 °C 47% 1009.7 hPa 16.1 km SSE 14.8 km/h / 4.1 m/s - N/A   Clear
11:53 PM 33.3 °C 37.5 °C 22.2 °C 52% 1009.5 hPa 16.1 km SSE 13.0 km/h / 3.6 m/s - N/A   Clear